| time (UTC) | temp F | wind direction | speed knots | gust knots | rain 1hr in | rain 24hr in | rain mn in | humidity % | barometer mb |
| 20260906102219 | 68 | 117 | 0.0 | 0.0 | 0.00 | 0.00 | 0.01 | 99 | 1007.7 |
| 20260906101803 | 69 | 117 | 0.0 | 0.0 | 0.00 | 0.00 | 0.01 | 99 | 1007.7 |
| 20260906101334 | 68 | 117 | 0.0 | 0.0 | 0.00 | 0.00 | 0.01 | 99 | 1007.7 |
| 20260906100902 | 68 | 118 | 0.0 | 0.0 | 0.00 | 0.00 | 0.01 | 99 | 1007.7 |
| 20260906100432 | 68 | 118 | 0.0 | 0.0 | 0.00 | 0.00 | 0.01 | 99 | 1007.4 |
| 20260906100016 | 68 | 118 | 0.0 | 0.0 | 0.00 | 0.00 | 0.01 | 99 | 1007.4 |
| 20260906095529 | 68 | 118 | 0.0 | 0.0 | 0.00 | 0.00 | 0.01 | 99 | 1007.7 |
| 20260906095112 | 68 | 118 | 0.0 | 0.0 | 0.00 | 0.00 | 0.01 | 99 | 1007.7 |
| 20260906093738 | 68 | 118 | 0.0 | 0.0 | 0.00 | 0.00 | 0.01 | 99 | 1007.7 |
| 20260906093322 | 68 | 118 | 0.0 | 0.0 | 0.00 | 0.00 | 0.01 | 99 | 1007.7 |
| 20260906092905 | 69 | 134 | 0.9 | 0.9 | 0.00 | 0.00 | 0.01 | 99 | 1007.7 |
| 20260906092450 | 69 | 87 | 0.0 | 0.0 | 0.00 | 0.00 | 0.01 | 99 | 1007.4 |
| 20260906092019 | 69 | 87 | 0.0 | 0.0 | 0.00 | 0.00 | 0.01 | 99 | 1007.4 |
| 20260906091549 | 69 | 87 | 0.0 | 0.0 | 0.00 | 0.00 | 0.01 | 99 | 1007.4 |
| 20260906091133 | 69 | 87 | 0.0 | 0.0 | 0.00 | 0.00 | 0.01 | 99 | 1007.4 |
| 20260906090659 | 69 | 87 | 0.0 | 0.0 | 0.00 | 0.00 | 0.01 | 99 | 1007.4 |
| 20260906090211 | 68 | 87 | 0.0 | 0.0 | 0.00 | 0.00 | 0.01 | 99 | 1007.4 |
| 20260906085739 | 68 | 87 | 0.0 | 0.0 | 0.00 | 0.00 | 0.01 | 99 | 1007.4 |
| 20260906085322 | 68 | 87 | 0.0 | 0.0 | 0.00 | 0.00 | 0.01 | 99 | 1007.4 |
| 20260906084002 | 68 | 87 | 0.0 | 0.0 | 0.00 | 0.00 | 0.01 | 99 | 1007.4 |
| 20260906083531 | 68 | 87 | 0.0 | 0.0 | 0.00 | 0.00 | 0.01 | 99 | 1007.4 |
| 20260906083114 | 68 | 87 | 0.0 | 0.0 | 0.00 | 0.00 | 0.01 | 99 | 1007.4 |
| 20260906082642 | 68 | 87 | 0.0 | 0.0 | 0.00 | 0.00 | 0.01 | 99 | 1007.4 |
| 20260906082211 | 68 | 87 | 0.0 | 0.0 | 0.00 | 0.00 | 0.01 | 99 | 1007.4 |
| 20260906081252 | 69 | 87 | 0.0 | 0.0 | 0.00 | 0.00 | 0.01 | 99 | 1007.4 |
| 20260906080821 | 69 | 87 | 0.0 | 0.0 | 0.00 | 0.00 | 0.01 | 99 | 1007.4 |
| 20260906080352 | 69 | 87 | 0.0 | 0.0 | 0.00 | 0.00 | 0.01 | 99 | 1007.4 |
| 20260906075935 | 69 | 87 | 0.0 | 0.0 | 0.00 | 0.00 | 0.01 | 99 | 1007.4 |
| 20260906075518 | 69 | 87 | 0.0 | 0.0 | 0.00 | 0.00 | 0.01 | 99 | 1007.4 |
| 20260906075046 | 69 | 87 | 0.0 | 0.0 | 0.00 | 0.00 | 0.01 | 99 | 1007.4 |
| 20260906074631 | 69 | 89 | 0.0 | 0.0 | 0.00 | 0.00 | 0.01 | 99 | 1007.7 |
| 20260906074214 | 69 | 88 | 0.0 | 0.0 | 0.00 | 0.00 | 0.01 | 99 | 1007.7 |
| 20260906073325 | 69 | 89 | 0.0 | 0.0 | 0.00 | 0.00 | 0.00 | 99 | 1007.7 |
| 20260906072908 | 69 | 95 | 0.0 | 0.0 | 0.00 | 0.00 | 0.00 | 99 | 1007.7 |
| 20260906072437 | 69 | 95 | 0.0 | 0.0 | 0.00 | 0.00 | 0.00 | 99 | 1007.7 |
| 20260906071549 | 69 | 96 | 0.0 | 0.0 | 0.00 | 0.00 | 0.00 | 99 | 1007.4 |
| 20260906071133 | 69 | 94 | 0.0 | 0.0 | 0.00 | 0.00 | 0.00 | 99 | 1007.4 |
| 20260906065727 | 69 | 87 | 0.0 | 0.0 | 0.00 | 0.00 | 0.00 | 99 | 1007.7 |
| 20260906065310 | 69 | 87 | 0.0 | 0.0 | 0.00 | 0.00 | 0.00 | 99 | 1007.7 |
| 20260906064838 | 69 | 87 | 0.9 | 1.7 | 0.00 | 0.00 | 0.00 | 99 | 1008.1 |
| 20260906063934 | 69 | 62 | 0.0 | 0.0 | 0.00 | 0.00 | 0.00 | 99 | 1007.7 |
| 20260906063518 | 69 | 62 | 0.0 | 0.0 | 0.00 | 0.00 | 0.00 | 99 | 1007.7 |
| 20260906063100 | 69 | 62 | 0.0 | 0.0 | 0.00 | 0.00 | 0.00 | 99 | 1007.7 |
| 20260906062645 | 69 | 62 | 0.0 | 0.0 | 0.00 | 0.00 | 0.00 | 99 | 1007.7 |
| 20260906061323 | 69 | 62 | 0.0 | 0.0 | 0.00 | 0.00 | 0.00 | 99 | 1008.1 |
| 20260906060906 | 69 | 62 | 0.0 | 0.0 | 0.00 | 0.00 | 0.00 | 99 | 1008.1 |
| 20260906060451 | 69 | 62 | 0.0 | 0.0 | 0.00 | 0.00 | 0.00 | 99 | 1007.7 |
| 20260906060035 | 69 | 62 | 0.0 | 0.0 | 0.00 | 0.00 | 0.00 | 99 | 1008.1 |
| 20260906055618 | 69 | 62 | 0.0 | 0.0 | 0.00 | 0.00 | 0.00 | 99 | 1008.1 |
| 20260906055203 | 69 | 62 | 0.0 | 0.0 | 0.00 | 0.00 | 0.00 | 99 | 1008.1 |
| 20260906054748 | 69 | 62 | 0.0 | 0.0 | 0.00 | 0.00 | 0.00 | 99 | 1008.1 |
| 20260906054302 | 69 | 62 | 0.0 | 0.0 | 0.00 | 0.00 | 0.00 | 99 | 1008.1 |
| 20260906053846 | 69 | 62 | 0.0 | 0.0 | 0.00 | 0.00 | 0.00 | 99 | 1008.1 |
| 20260906053416 | 69 | 62 | 0.0 | 0.0 | 0.00 | 0.00 | 0.00 | 99 | 1008.4 |
| 20260906052945 | 69 | 62 | 0.0 | 0.0 | 0.00 | 0.00 | 0.00 | 99 | 1008.4 |
| 20260906052043 | 69 | 62 | 0.0 | 0.0 | 0.00 | 0.00 | 0.00 | 99 | 1008.4 |
| 20260906050712 | 69 | 62 | 0.0 | 0.0 | 0.00 | 0.00 | 0.00 | 99 | 1008.1 |
| 20260906045824 | 69 | 62 | 0.0 | 0.0 | 0.00 | 0.00 | 0.00 | 99 | 1008.4 |
| 20260906045407 | 69 | 62 | 0.0 | 0.0 | 0.00 | 0.00 | 0.00 | 99 | 1008.1 |
| 20260906044951 | 69 | 62 | 0.0 | 0.0 | 0.00 | 0.00 | 0.00 | 99 | 1008.4 |
| 20260906044520 | 69 | 62 | 0.0 | 0.0 | 0.00 | 0.00 | 0.00 | 99 | 1008.4 |
| 20260906044104 | 69 | 62 | 0.0 | 0.0 | 0.00 | 0.00 | 0.00 | 99 | 1008.1 |
| 20260906042718 | 69 | 62 | 0.0 | 0.0 | 0.00 | 0.00 | 0.00 | 99 | 1007.7 |
| 20260906042302 | 69 | 62 | 0.0 | 0.0 | 0.00 | 0.00 | 0.00 | 99 | 1008.4 |
| 20260906041846 | 69 | 62 | 0.0 | 0.0 | 0.00 | 0.00 | 0.00 | 99 | 1008.4 |
| 20260906040928 | 69 | 62 | 0.0 | 0.0 | 0.00 | 0.00 | 0.00 | 99 | 1008.1 |
| 20260906040512 | 69 | 62 | 0.0 | 0.0 | 0.00 | 0.00 | 0.00 | 99 | 1008.1 |
| 20260906040056 | 70 | 62 | 0.0 | 0.0 | 0.00 | 0.00 | 0.57 | 99 | 1008.4 |
| 20260906035624 | 70 | 62 | 0.0 | 0.0 | 0.00 | 0.00 | 0.57 | 99 | 1008.4 |
| 20260906035207 | 70 | 62 | 0.0 | 0.0 | 0.00 | 0.00 | 0.57 | 99 | 1008.1 |
| 20260906034752 | 70 | 62 | 0.0 | 0.0 | 0.00 | 0.00 | 0.57 | 99 | 1008.1 |
| 20260906033820 | 70 | 62 | 0.0 | 0.0 | 0.00 | 0.00 | 0.57 | 99 | 1008.1 |
| 20260906033400 | 70 | 62 | 0.0 | 0.0 | 0.00 | 0.00 | 0.57 | 99 | 1008.1 |
| 20260906032944 | 70 | 62 | 0.0 | 0.0 | 0.00 | 0.00 | 0.57 | 99 | 1008.4 |
| 20260906032513 | 70 | 62 | 0.0 | 0.0 | 0.00 | 0.00 | 0.57 | 99 | 1008.1 |
| 20260906032043 | 70 | 62 | 0.0 | 0.0 | 0.00 | 0.00 | 0.57 | 99 | 1008.4 |
| 20260906031555 | 70 | 62 | 0.0 | 0.0 | 0.00 | 0.00 | 0.57 | 99 | 1008.1 |
| 20260906031140 | 70 | 62 | 0.0 | 0.0 | 0.00 | 0.00 | 0.57 | 99 | 1008.1 |
| 20260906030651 | 70 | 62 | 0.0 | 0.0 | 0.00 | 0.00 | 0.57 | 99 | 1008.4 |
| 20260906030236 | 70 | 62 | 0.0 | 0.0 | 0.00 | 0.00 | 0.57 | 99 | 1008.4 |
| 20260906025346 | 70 | 62 | 0.0 | 0.0 | 0.00 | 0.00 | 0.57 | 99 | 1008.4 |
| 20260906024914 | 70 | 62 | 0.0 | 0.0 | 0.00 | 0.00 | 0.57 | 99 | 1008.4 |
| 20260906024427 | 70 | 62 | 0.0 | 0.0 | 0.00 | 0.00 | 0.57 | 99 | 1008.4 |
| 20260906023954 | 70 | 62 | 0.0 | 0.0 | 0.00 | 0.00 | 0.57 | 99 | 1008.8 |
| 20260906023538 | 70 | 62 | 0.0 | 0.0 | 0.00 | 0.00 | 0.57 | 99 | 1008.4 |
| 20260906023107 | 70 | 62 | 0.0 | 0.0 | 0.00 | 0.00 | 0.57 | 99 | 1008.4 |
| 20260906022636 | 70 | 62 | 0.0 | 0.0 | 0.00 | 0.00 | 0.57 | 99 | 1008.4 |
| 20260906022204 | 70 | 62 | 0.0 | 0.0 | 0.00 | 0.00 | 0.57 | 99 | 1008.1 |
| 20260906021733 | 70 | 62 | 0.0 | 0.0 | 0.00 | 0.00 | 0.57 | 99 | 1008.1 |
| 20260906021316 | 70 | 62 | 0.0 | 0.0 | 0.00 | 0.00 | 0.57 | 99 | 1008.1 |
| 20260906020357 | 71 | 62 | 0.0 | 0.0 | 0.00 | 0.00 | 0.57 | 99 | 1008.1 |
| 20260906015941 | 71 | 62 | 0.0 | 0.0 | 0.00 | 0.00 | 0.57 | 99 | 1008.4 |
| 20260906015509 | 71 | 62 | 0.0 | 0.0 | 0.00 | 0.00 | 0.57 | 99 | 1008.4 |
| 20260906014621 | 71 | 62 | 0.0 | 0.0 | 0.00 | 0.00 | 0.57 | 99 | 1008.4 |
| 20260906014149 | 71 | 62 | 0.0 | 0.0 | 0.00 | 0.00 | 0.57 | 99 | 1008.4 |
| 20260906013733 | 71 | 62 | 0.0 | 0.0 | 0.00 | 0.00 | 0.57 | 99 | 1008.4 |
| 20260906013259 | 71 | 62 | 0.0 | 0.0 | 0.00 | 0.00 | 0.57 | 99 | 1008.1 |
| 20260906012842 | 71 | 62 | 0.0 | 0.0 | 0.00 | 0.00 | 0.57 | 99 | 1008.1 |
| 20260906012411 | 71 | 62 | 0.0 | 0.0 | 0.00 | 0.00 | 0.57 | 99 | 1008.1 |
| 20260906011939 | 72 | 62 | 0.0 | 0.0 | 0.00 | 0.00 | 0.57 | 99 | 1007.7 |
| 20260906011036 | 72 | 62 | 0.0 | 0.0 | 0.00 | 0.00 | 0.57 | 99 | 1008.1 |
| 20260906010133 | 72 | 62 | 0.0 | 0.0 | 0.00 | 0.00 | 0.57 | 98 | 1007.7 |
| 20260906005716 | 72 | 62 | 0.0 | 0.0 | 0.00 | 0.00 | 0.57 | 98 | 1007.7 |
| 20260906005244 | 72 | 62 | 0.0 | 0.0 | 0.00 | 0.00 | 0.57 | 98 | 1008.1 |
| 20260906004813 | 72 | 62 | 0.0 | 0.0 | 0.00 | 0.00 | 0.57 | 98 | 1008.1 |
| 20260906004340 | 72 | 62 | 0.0 | 0.0 | 0.00 | 0.00 | 0.57 | 97 | 1007.4 |
| 20260906003923 | 72 | 62 | 0.0 | 0.0 | 0.00 | 0.00 | 0.57 | 97 | 1007.4 |
| 20260906003506 | 73 | 62 | 0.0 | 0.0 | 0.00 | 0.00 | 0.57 | 97 | 1007.4 |
| 20260906002602 | 73 | 62 | 0.0 | 0.0 | 0.00 | 0.00 | 0.57 | 96 | 1007.4 |
| 20260906002147 | 73 | 62 | 0.0 | 0.0 | 0.00 | 0.00 | 0.57 | 96 | 1007.4 |
| 20260906001729 | 73 | 62 | 0.0 | 0.0 | 0.00 | 0.00 | 0.57 | 95 | 1007.4 |
| 20260906001257 | 74 | 62 | 0.0 | 0.0 | 0.00 | 0.00 | 0.57 | 95 | 1007.4 |
| 20260906000841 | 74 | 62 | 0.0 | 0.0 | 0.00 | 0.00 | 0.57 | 95 | 1007.4 |
| 20260906000411 | 74 | 62 | 0.0 | 0.0 | 0.00 | 0.00 | 0.57 | 94 | 1007.4 |
| 20260905235952 | 74 | 62 | 0.0 | 0.0 | 0.00 | 0.00 | 0.57 | 93 | 1007.7 |
| 20260905235536 | 75 | 62 | 0.0 | 0.0 | 0.00 | 0.00 | 0.57 | 93 | 1007.7 |
| 20260905235047 | 75 | 62 | 0.0 | 0.0 | 0.00 | 0.00 | 0.57 | 92 | 1007.7 |
| 20260905234631 | 75 | 62 | 0.0 | 0.0 | 0.00 | 0.00 | 0.57 | 91 | 1007.7 |
| 20260905234216 | 76 | 62 | 0.0 | 0.0 | 0.00 | 0.00 | 0.57 | 90 | 1007.4 |
| 20260905233801 | 76 | 62 | 0.0 | 0.0 | 0.00 | 0.00 | 0.57 | 89 | 1007.7 |
| 20260905233345 | 76 | 62 | 0.0 | 0.0 | 0.00 | 0.00 | 0.57 | 89 | 1007.4 |
| 20260905231547 | 78 | 62 | 0.0 | 0.0 | 0.00 | 0.00 | 0.57 | 83 | 1007.4 |
| 20260905231119 | 78 | 62 | 0.0 | 0.0 | 0.00 | 0.00 | 0.57 | 82 | 1007.7 |
| 20260905230219 | 79 | 62 | 0.0 | 0.0 | 0.00 | 0.00 | 0.57 | 83 | 1007.7 |
| 20260905225747 | 79 | 62 | 0.0 | 0.0 | 0.00 | 0.00 | 0.57 | 82 | 1007.4 |
| 20260905225317 | 79 | 62 | 0.0 | 0.0 | 0.00 | 0.00 | 0.57 | 82 | 1007.4 |
| 20260905224846 | 80 | 55 | 0.0 | 0.0 | 0.00 | 0.00 | 0.57 | 80 | 1007.4 |
| 20260905224429 | 80 | 55 | 0.0 | 0.0 | 0.00 | 0.00 | 0.57 | 78 | 1007.4 |
| 20260905224010 | 80 | 55 | 0.0 | 0.0 | 0.00 | 0.00 | 0.57 | 78 | 1007.4 |
| 20260905223539 | 81 | 55 | 0.0 | 0.0 | 0.00 | 0.00 | 0.57 | 77 | 1007.4 |
| 20260905223125 | 81 | 55 | 0.0 | 0.0 | 0.00 | 0.00 | 0.57 | 76 | 1007.4 |
| 20260905222710 | 81 | 55 | 0.0 | 0.0 | 0.00 | 0.00 | 0.57 | 75 | 1007.4 |
| 20260905222255 | 82 | 55 | 0.0 | 0.0 | 0.00 | 0.00 | 0.57 | 74 | 1007.4 |
| 20260905221839 | 82 | 55 | 0.0 | 0.0 | 0.00 | 0.00 | 0.57 | 72 | 1007.4 |
| 20260905220938 | 83 | 56 | 0.0 | 0.0 | 0.00 | 0.00 | 0.57 | 70 | 1007.4 |
| 20260905220520 | 83 | 56 | 0.0 | 0.0 | 0.00 | 0.00 | 0.57 | 70 | 1007.4 |
| 20260905220046 | 84 | 53 | 0.0 | 0.0 | 0.00 | 0.00 | 0.57 | 69 | 1007.4 |
| 20260905215630 | 85 | 53 | 0.0 | 0.0 | 0.00 | 0.00 | 0.57 | 65 | 1007.4 |
| 20260905215159 | 85 | 53 | 0.0 | 0.0 | 0.00 | 0.00 | 0.57 | 65 | 1007.7 |
| 20260905214312 | 86 | 48 | 0.9 | 0.9 | 0.00 | 0.00 | 0.57 | 66 | 1007.4 |
| 20260905212943 | 87 | 94 | 0.0 | 0.0 | 0.00 | 0.00 | 0.57 | 63 | 1007.4 |
| 20260905212044 | 89 | 94 | 0.0 | 0.0 | 0.00 | 0.00 | 0.57 | 56 | 1007.4 |
| 20260905211614 | 88 | 168 | 0.0 | 0.9 | 0.00 | 0.00 | 0.57 | 62 | 1007.4 |
| 20260905211158 | 88 | 134 | 1.7 | 1.7 | 0.00 | 0.00 | 0.57 | 56 | 1007.4 |
| 20260905210743 | 89 | 109 | 0.0 | 0.0 | 0.00 | 0.00 | 0.57 | 62 | 1007.1 |
| 20260905204925 | 90 | 50 | 0.0 | 0.0 | 0.00 | 0.00 | 0.57 | 60 | 1007.1 |
| 20260905204510 | 91 | 80 | 0.0 | 0.9 | 0.00 | 0.00 | 0.57 | 55 | 1007.1 |
| 20260905204053 | 88 | 124 | 0.0 | 0.0 | 0.00 | 0.00 | 0.57 | 61 | 1006.7 |
| 20260905203637 | 88 | 124 | 0.0 | 0.0 | 0.00 | 0.00 | 0.57 | 61 | 1006.7 |
| 20260905203223 | 88 | 106 | 0.9 | 0.9 | 0.00 | 0.00 | 0.57 | 60 | 1007.1 |
| 20260905202807 | 89 | 86 | 0.9 | 1.7 | 0.00 | 0.00 | 0.57 | 61 | 1007.4 |
| 20260905202353 | 89 | 55 | 0.0 | 0.0 | 0.00 | 0.00 | 0.57 | 67 | 1007.1 |
| 20260905201939 | 88 | 69 | 1.7 | 1.7 | 0.00 | 0.00 | 0.57 | 67 | 1007.4 |
| 20260905201524 | 87 | 113 | 0.0 | 0.9 | 0.00 | 0.00 | 0.57 | 65 | 1007.1 |
| 20260905201053 | 86 | 86 | 0.0 | 0.0 | 0.00 | 0.00 | 0.57 | 68 | 1006.7 |
| 20260905200154 | 87 | 114 | 0.9 | 0.9 | 0.00 | 0.00 | 0.57 | 66 | 1007.4 |
| 20260905195724 | 87 | 177 | 1.7 | 1.7 | 0.00 | 0.00 | 0.57 | 65 | 1007.1 |
| 20260905195307 | 86 | 65 | 0.9 | 0.9 | 0.00 | 0.00 | 0.57 | 72 | 1007.4 |
| 20260905194404 | 86 | 197 | 0.9 | 1.7 | 0.00 | 0.00 | 0.57 | 73 | 1007.4 |
| 20260905193500 | 87 | 188 | 1.7 | 2.6 | 0.00 | 0.00 | 0.57 | 67 | 1007.7 |
| 20260905193043 | 86 | 173 | 0.9 | 1.7 | 0.00 | 0.00 | 0.57 | 69 | 1007.7 |
| 20260905192613 | 86 | 261 | 0.9 | 1.7 | 0.00 | 0.00 | 0.57 | 67 | 1007.7 |
| 20260905192142 | 86 | 95 | 0.0 | 0.0 | 0.00 | 0.00 | 0.57 | 67 | 1007.7 |
| 20260905191726 | 86 | 189 | 3.5 | 3.5 | 0.00 | 0.00 | 0.57 | 68 | 1007.7 |
| 20260905191255 | 86 | 55 | 0.0 | 0.0 | 0.00 | 0.00 | 0.57 | 68 | 1008.1 |
| 20260905190840 | 86 | 55 | 0.0 | 0.0 | 0.00 | 0.00 | 0.57 | 68 | 1008.1 |
| 20260905190408 | 85 | 40 | 0.0 | 0.9 | 0.00 | 0.00 | 0.57 | 71 | 1008.1 |
| 20260905185937 | 86 | 154 | 0.9 | 0.9 | 0.00 | 0.00 | 0.57 | 71 | 1008.4 |
| 20260905185522 | 84 | 72 | 0.0 | 0.0 | 0.00 | 0.00 | 0.57 | 71 | 1008.4 |
| 20260905185051 | 84 | 68 | 0.0 | 0.9 | 0.00 | 0.00 | 0.57 | 72 | 1008.8 |
| 20260905184637 | 83 | 138 | 0.0 | 0.0 | 0.00 | 0.00 | 0.57 | 73 | 1008.8 |
| 20260905184222 | 83 | 121 | 0.9 | 1.7 | 0.00 | 0.00 | 0.57 | 72 | 1009.1 |
| 20260905183735 | 82 | 112 | 0.0 | 0.9 | 0.00 | 0.00 | 0.57 | 77 | 1008.8 |
| 20260905183319 | 81 | 99 | 0.0 | 0.9 | 0.00 | 0.00 | 0.57 | 77 | 1009.1 |
| 20260905182900 | 82 | 66 | 0.0 | 0.0 | 0.00 | 0.00 | 0.57 | 77 | 1009.1 |
| 20260905182014 | 81 | 158 | 0.9 | 0.9 | 0.00 | 0.00 | 0.57 | 78 | 1009.1 |
| 20260905181554 | 81 | 93 | 0.0 | 0.0 | 0.00 | 0.00 | 0.57 | 75 | 1009.4 |
| 20260905181123 | 81 | 127 | 0.9 | 0.9 | 0.00 | 0.00 | 0.57 | 77 | 1009.4 |
| 20260905180706 | 81 | 143 | 1.7 | 2.6 | 0.00 | 0.00 | 0.57 | 79 | 1009.4 |
| 20260905175804 | 80 | 59 | 0.0 | 0.0 | 0.00 | 0.00 | 0.57 | 82 | 1009.4 |
| 20260905175349 | 79 | 212 | 0.9 | 1.7 | 0.00 | 0.00 | 0.57 | 82 | 1009.4 |
| 20260905174934 | 79 | 31 | 0.9 | 1.7 | 0.00 | 0.00 | 0.57 | 84 | 1009.4 |
| 20260905174050 | 78 | 81 | 1.7 | 1.7 | 0.00 | 0.00 | 0.57 | 87 | 1009.8 |
| 20260905173634 | 77 | 102 | 0.0 | 0.0 | 0.00 | 0.00 | 0.57 | 91 | 1009.8 |
| 20260905173204 | 76 | 204 | 0.9 | 0.9 | 0.00 | 0.00 | 0.57 | 89 | 1009.4 |
| 20260905172747 | 75 | 163 | 0.0 | 0.9 | 0.00 | 0.00 | 0.57 | 92 | 1009.8 |
| 20260905171900 | 73 | 47 | 0.0 | 0.9 | 0.00 | 0.00 | 0.57 | 99 | 1009.8 |
| 20260905171444 | 72 | 130 | 0.0 | 0.9 | 0.00 | 0.00 | 0.57 | 99 | 1009.8 |
| 20260905170542 | 72 | 96 | 0.0 | 0.0 | 0.00 | 0.00 | 0.57 | 99 | 1009.8 |
| 20260905170127 | 72 | 92 | 0.9 | 0.9 | 0.00 | 0.00 | 0.57 | 99 | 1009.8 |
| 20260905165711 | 71 | 119 | 0.0 | 0.0 | 0.00 | 0.00 | 0.57 | 99 | 1009.8 |
| 20260905165253 | 71 | 120 | 0.0 | 0.0 | 0.00 | 0.00 | 0.57 | 99 | 1010.1 |
| 20260905164836 | 71 | 100 | 0.0 | 0.0 | 0.00 | 0.00 | 0.57 | 99 | 1010.1 |
| 20260905164422 | 70 | 96 | 0.0 | 0.0 | 0.00 | 0.00 | 0.57 | 99 | 1010.1 |
| 20260905163949 | 70 | 96 | 0.0 | 0.0 | 0.00 | 0.00 | 0.57 | 99 | 1010.1 |
| 20260905163518 | 69 | 98 | 0.0 | 0.0 | 0.00 | 0.00 | 0.57 | 99 | 1010.8 |
| 20260905163048 | 69 | 98 | 0.0 | 0.0 | 0.00 | 0.00 | 0.57 | 99 | 1010.4 |
| 20260905162632 | 69 | 102 | 0.0 | 0.0 | 0.00 | 0.00 | 0.57 | 99 | 1010.8 |
| 20260905162200 | 69 | 96 | 0.0 | 0.0 | 0.00 | 0.00 | 0.57 | 99 | 1010.4 |
| 20260905161743 | 68 | 124 | 0.0 | 0.0 | 0.00 | 0.00 | 0.57 | 99 | 1010.8 |
| 20260905161327 | 69 | 87 | 0.0 | 0.0 | 0.00 | 0.00 | 0.57 | 99 | 1010.4 |
| 20260905160856 | 68 | 87 | 0.0 | 0.0 | 0.00 | 0.00 | 0.57 | 99 | 1010.8 |
| 20260905160442 | 68 | 78 | 0.0 | 0.0 | 0.00 | 0.00 | 0.56 | 99 | 1010.8 |
| 20260905160011 | 68 | 83 | 0.0 | 0.0 | 0.00 | 0.00 | 0.56 | 99 | 1011.1 |
| 20260905155541 | 68 | 83 | 0.0 | 0.0 | 0.00 | 0.00 | 0.56 | 99 | 1011.1 |
| 20260905154209 | 68 | 68 | 0.0 | 0.0 | 0.00 | 0.00 | 0.56 | 99 | 1011.5 |
| 20260905153736 | 68 | 80 | 0.9 | 0.9 | 0.00 | 0.00 | 0.56 | 99 | 1011.8 |
| 20260905153318 | 68 | 65 | 0.0 | 0.0 | 0.00 | 0.00 | 0.56 | 99 | 1011.8 |
| 20260905152901 | 68 | 68 | 0.9 | 0.9 | 0.00 | 0.00 | 0.56 | 99 | 1011.8 |
| 20260905152444 | 69 | 99 | 0.0 | 0.0 | 0.00 | 0.00 | 0.56 | 99 | 1011.8 |
| 20260905152027 | 69 | 102 | 0.0 | 0.0 | 0.00 | 0.00 | 0.55 | 99 | 1011.8 |
| 20260905151555 | 68 | 80 | 0.0 | 0.0 | 0.00 | 0.00 | 0.55 | 99 | 1012.1 |
| 20260905151140 | 69 | 81 | 0.0 | 0.0 | 0.00 | 0.00 | 0.52 | 99 | 1011.8 |
| 20260905150722 | 69 | 80 | 0.0 | 0.0 | 0.00 | 0.00 | 0.49 | 99 | 1012.1 |
| 20260905150305 | 69 | 80 | 0.0 | 0.0 | 0.00 | 0.00 | 0.49 | 99 | 1012.1 |
| 20260905145849 | 68 | 83 | 0.0 | 0.0 | 0.00 | 0.00 | 0.49 | 99 | 1012.5 |
| 20260905145432 | 68 | 81 | 0.0 | 0.0 | 0.00 | 0.00 | 0.48 | 99 | 1012.5 |
| 20260905145017 | 68 | 92 | 0.0 | 0.0 | 0.00 | 0.00 | 0.47 | 99 | 1012.1 |
| 20260905144559 | 68 | 203 | 1.7 | 1.7 | 0.00 | 0.00 | 0.44 | 99 | 1011.8 |
| 20260905144144 | 69 | 156 | 0.9 | 1.7 | 0.00 | 0.00 | 0.38 | 99 | 1011.8 |
| 20260905143726 | 76 | 98 | 1.7 | 3.5 | 0.00 | 0.00 | 0.00 | 91 | 1011.1 |
| 20260905143256 | 76 | 98 | 1.7 | 3.5 | 0.00 | 0.00 | 0.00 | 91 | 1011.1 |
| 20260905142823 | 79 | 35 | 0.0 | 0.0 | 0.00 | 0.00 | 0.00 | 87 | 1010.4 |
| 20260905142407 | 79 | 128 | 0.0 | 0.0 | 0.00 | 0.00 | 0.00 | 86 | 1009.4 |
| 20260905141948 | 79 | 140 | 0.0 | 0.0 | 0.00 | 0.00 | 0.00 | 86 | 1009.8 |
| 20260905141533 | 79 | 99 | 0.0 | 0.0 | 0.00 | 0.00 | 0.00 | 85 | 1009.4 |
| 20260905140631 | 76 | 99 | 0.0 | 0.0 | 0.00 | 0.00 | 0.00 | 89 | 1008.8 |
| 20260905140215 | 75 | 123 | 0.0 | 0.0 | 0.00 | 0.00 | 0.00 | 92 | 1009.4 |
| 20260905135756 | 76 | 113 | 0.0 | 0.0 | 0.00 | 0.00 | 0.00 | 90 | 1009.4 |
| 20260905135338 | 76 | 94 | 0.0 | 0.0 | 0.00 | 0.00 | 0.00 | 91 | 1009.8 |
| 20260905134451 | 75 | 94 | 0.0 | 0.0 | 0.00 | 0.00 | 0.00 | 92 | 1010.1 |
| 20260905134033 | 75 | 93 | 0.0 | 0.0 | 0.00 | 0.00 | 0.00 | 93 | 1010.1 |
| 20260905133600 | 74 | 94 | 0.0 | 0.0 | 0.00 | 0.00 | 0.00 | 94 | 1010.1 |
| 20260905133129 | 73 | 93 | 0.0 | 0.0 | 0.00 | 0.00 | 0.00 | 96 | 1010.1 |
| 20260905132711 | 73 | 93 | 0.0 | 0.0 | 0.00 | 0.00 | 0.00 | 97 | 1010.1 |
| 20260905131339 | 70 | 111 | 0.0 | 0.0 | 0.00 | 0.00 | 0.00 | 99 | 1010.1 |
| 20260905130922 | 70 | 126 | 0.0 | 0.0 | 0.00 | 0.00 | 0.00 | 99 | 1010.1 |
| 20260905130504 | 69 | 127 | 0.0 | 0.0 | 0.00 | 0.00 | 0.00 | 99 | 1010.1 |
| 20260905130032 | 69 | 126 | 0.0 | 0.0 | 0.00 | 0.00 | 0.00 | 99 | 1010.1 |
| 20260905125613 | 68 | 128 | 0.0 | 0.0 | 0.00 | 0.00 | 0.00 | 99 | 1010.4 |
| 20260905124254 | 68 | 113 | 0.0 | 0.0 | 0.00 | 0.00 | 0.00 | 99 | 1010.4 |
| 20260905123408 | 68 | 82 | 0.0 | 0.0 | 0.00 | 0.00 | 0.00 | 99 | 1010.4 |
| 20260905122951 | 68 | 80 | 0.0 | 0.0 | 0.00 | 0.00 | 0.00 | 99 | 1010.1 |
| 20260905122045 | 68 | 80 | 0.0 | 0.0 | 0.00 | 0.00 | 0.00 | 99 | 1010.1 |
| 20260905121631 | 68 | 80 | 0.0 | 0.0 | 0.00 | 0.00 | 0.00 | 99 | 1010.1 |
| 20260905121200 | 68 | 80 | 0.0 | 0.0 | 0.00 | 0.00 | 0.00 | 99 | 1010.1 |
| 20260905120258 | 68 | 80 | 0.0 | 0.0 | 0.00 | 0.00 | 0.00 | 99 | 1010.1 |
| 20260905114922 | 67 | 80 | 0.0 | 0.0 | 0.00 | 0.00 | 0.00 | 99 | 1009.8 |
| 20260905114452 | 67 | 80 | 0.0 | 0.0 | 0.00 | 0.00 | 0.00 | 99 | 1010.1 |
| 20260905114038 | 67 | 80 | 0.0 | 0.0 | 0.00 | 0.00 | 0.00 | 99 | 1010.1 |
| 20260905113622 | 67 | 80 | 0.0 | 0.0 | 0.00 | 0.00 | 0.00 | 99 | 1010.1 |
| 20260905113136 | 67 | 80 | 0.0 | 0.0 | 0.00 | 0.00 | 0.00 | 99 | 1010.1 |
| 20260905112706 | 67 | 80 | 0.0 | 0.0 | 0.00 | 0.00 | 0.00 | 99 | 1009.8 |
| 20260905112251 | 67 | 80 | 0.0 | 0.0 | 0.00 | 0.00 | 0.00 | 99 | 1009.8 |
| 20260905111821 | 67 | 80 | 0.0 | 0.0 | 0.00 | 0.00 | 0.00 | 99 | 1009.4 |
| 20260905111406 | 67 | 80 | 0.0 | 0.0 | 0.00 | 0.00 | 0.00 | 99 | 1009.4 |
| 20260905110949 | 67 | 80 | 0.0 | 0.0 | 0.00 | 0.00 | 0.00 | 99 | 1009.4 |
| 20260905110519 | 67 | 80 | 0.0 | 0.0 | 0.00 | 0.00 | 0.00 | 99 | 1009.8 |
| 20260905110105 | 67 | 80 | 0.0 | 0.0 | 0.00 | 0.00 | 0.00 | 99 | 1009.1 |
| 20260905105634 | 67 | 80 | 0.0 | 0.0 | 0.00 | 0.00 | 0.00 | 99 | 1009.4 |
| 20260905105147 | 67 | 80 | 0.0 | 0.0 | 0.00 | 0.00 | 0.00 | 99 | 1009.4 |
| 20260905104731 | 67 | 80 | 0.0 | 0.0 | 0.00 | 0.00 | 0.00 | 99 | 1009.4 |
| 20260905104315 | 67 | 80 | 0.0 | 0.0 | 0.00 | 0.00 | 0.00 | 99 | 1009.4 |
| 20260905103859 | 67 | 80 | 0.0 | 0.0 | 0.00 | 0.00 | 0.00 | 99 | 1009.4 |
| 20260905103427 | 67 | 80 | 0.0 | 0.0 | 0.00 | 0.00 | 0.00 | 99 | 1009.4 |
| 20260905103012 | 67 | 80 | 0.0 | 0.0 | 0.00 | 0.00 | 0.00 | 99 | 1009.4 |
| 20260905102542 | 67 | 80 | 0.0 | 0.0 | 0.00 | 0.00 | 0.00 | 99 | 1009.4 |